Mackinac Island, MI

7:36 AM EDT on August 21, 2017 (GMT -0400)
Mackinac Island

Weather History for KMCD - May, 2013

Change the Weather History Date:

Thursday, May 9, 2013

  Actual Average Record
Temperature  
Mean Temperature 58 °F -  
Max Temperature 69 °F 53 °F 75 °F (1993)
Min Temperature 45 °F 38 °F 29 °F (2017)
Degree Days  
Heating Degree Days 6    
Growing Degree Days 8 (Base 50)    
Moisture  
Dew Point 40 °F    
Average Humidity 51    
Maximum Humidity 76    
Minimum Humidity 34    
Precipitation  
Precipitation 0.00 in - - ()
Sea Level Pressure  
Sea Level Pressure 29.98 in    
Wind  
Wind Speed 7 mph (North)    
Max Wind Speed 18 mph    
Max Gust Speed 25 mph    
Visibility 10 miles    
Events Rain    
Averages and records for this station are not official NWS values.
T = Trace of Precipitation, MM = Missing Value Source: NWS Daily Summary

Daily Weather History Graph

Daily Weather History Graph

Search for Another Location

Airport or City:

Trip Planner

Search our weather history database for the weather conditions in past years. The results will help you decide how hot, cold, wet, or windy it might be!

Date:

Astronomy

May. 09, 2013 Rise Set
Actual Time 6:14 AM EDT 8:56 PM EDT
Civil Twilight 5:39 AM EDT 9:30 PM EDT
Nautical Twilight 4:56 AM EDT 10:14 PM EDT
Astronomical Twilight 4:06 AM EDT 11:04 PM EDT
Moon 5:59 AM EDT (5/9) 8:50 PM EDT (5/9)
Length of Visible Light 15h 51m
Length of Day
14h 42m
Waning Crescent, 0% of the Moon is Illuminated
May 9
Waning Crescent
May 9
New
May 18
First Quarter
May 25
Full
May 31
Last Quarter

Hourly Weather History & Observations

Time (EDT) Temp. Windchill Dew Point Humidity Pressure Visibility Wind Dir Wind Speed Gust Speed Precip Events Conditions
12:15 AM 55.8 °F - 36.1 °F 48% 29.98 in 10.0 mi WSW 6.9 mph - N/A   Clear
12:35 AM 55.8 °F - 36.0 °F 47% 29.98 in 10.0 mi West 6.9 mph - N/A   Clear
12:55 AM 55.9 °F - 36.3 °F 48% 29.97 in 10.0 mi West 6.9 mph - N/A   Clear
1:15 AM 56.8 °F - 33.3 °F 41% 29.97 in 10.0 mi West 5.8 mph - N/A   Clear
1:35 AM 55.8 °F - 33.4 °F 43% 29.97 in 10.0 mi WSW 8.1 mph - N/A   Clear
2:15 AM 58.8 °F - 30.2 °F 34% 29.97 in 10.0 mi WNW 6.9 mph - N/A   Clear
2:35 AM 58.3 °F - 30.7 °F 35% 29.96 in 10.0 mi WNW 5.8 mph - N/A   Clear
3:15 AM 53.6 °F - 34.9 °F 49% 29.96 in 10.0 mi NNW 6.9 mph - N/A   Clear
3:35 AM 53.6 °F - 35.8 °F 51% 29.95 in 10.0 mi NW 4.6 mph - N/A   Clear
3:54 AM 51.8 °F - 36.9 °F 57% 29.95 in 10.0 mi NNW 5.8 mph - N/A   Clear
4:15 AM 52.5 °F - 36.7 °F 55% 29.95 in 10.0 mi NNW 4.6 mph - N/A   Clear
4:35 AM 52.3 °F - 37.0 °F 56% 29.95 in 10.0 mi NNW 5.8 mph - N/A   Clear
4:54 AM 52.9 °F - 36.3 °F 53% 29.94 in 10.0 mi Calm Calm - N/A   Clear
5:15 AM 53.2 °F - 36.5 °F 53% 29.94 in 10.0 mi North 4.6 mph - N/A   Mostly Cloudy
5:34 AM 53.2 °F - 37.0 °F 54% 29.95 in 10.0 mi NNW 4.6 mph - N/A   Mostly Cloudy
5:55 AM 52.5 °F - 37.2 °F 56% 29.95 in 10.0 mi North 4.6 mph - N/A   Scattered Clouds
6:15 AM 51.6 °F - 37.0 °F 58% 29.95 in 10.0 mi North 4.6 mph - N/A   Clear
6:34 AM 50.9 °F - 37.9 °F 61% 29.95 in 10.0 mi North 5.8 mph - N/A   Clear
6:55 AM 50.7 °F - 38.5 °F 63% 29.96 in 10.0 mi North 3.5 mph - N/A   Clear
7:15 AM 52.2 °F - 37.6 °F 58% 29.96 in 10.0 mi NNE 3.5 mph - N/A   Scattered Clouds
7:34 AM 52.9 °F - 39.0 °F 59% 29.97 in 10.0 mi Calm Calm - N/A   Mostly Cloudy
8:15 AM 54.9 °F - 40.3 °F 58% 29.97 in 10.0 mi Calm Calm - N/A   Clear
8:34 AM 56.1 °F - 40.6 °F 56% 29.97 in 10.0 mi Calm Calm - N/A   Clear
8:55 AM 60.8 °F - 41.7 °F 49% 29.97 in 10.0 mi East 5.8 mph - N/A   Clear
9:15 AM 62.4 °F - 42.4 °F 48% 29.97 in 10.0 mi ESE 4.6 mph - N/A   Mostly Cloudy
9:34 AM 62.2 °F - 42.3 °F 48% 29.97 in 10.0 mi ENE 5.8 mph - N/A   Scattered Clouds
9:55 AM 60.6 °F - 41.4 °F 49% 29.97 in 10.0 mi ENE 4.6 mph - N/A   Scattered Clouds
10:15 AM 63.0 °F - 42.6 °F 47% 29.97 in 10.0 mi East 3.5 mph - N/A   Scattered Clouds
10:34 AM 62.1 °F - 42.8 °F 49% 29.97 in 10.0 mi East 4.6 mph - N/A   Scattered Clouds
10:55 AM 59.9 °F - 42.3 °F 52% 29.98 in 10.0 mi ENE 6.9 mph - N/A   Clear
11:14 AM 60.8 °F - 43.3 °F 53% 29.99 in 10.0 mi NE 6.9 mph - N/A   Clear
11:35 AM 63.0 °F - 43.5 °F 49% 30.00 in 10.0 mi NE 6.9 mph - N/A   Clear
11:55 AM 63.5 °F - 42.8 °F 47% 30.00 in 10.0 mi NNE 8.1 mph - N/A   Scattered Clouds
12:14 PM 64.9 °F - 45.1 °F 49% 30.00 in 10.0 mi NNE 8.1 mph - N/A   Clear
12:35 PM 64.8 °F - 45.9 °F 50% 30.00 in 10.0 mi North 8.1 mph - N/A   Scattered Clouds
12:55 PM 64.6 °F - 45.7 °F 50% 30.00 in 10.0 mi North 9.2 mph - N/A   Scattered Clouds
1:14 PM 64.4 °F - 45.0 °F 49% 30.00 in 10.0 mi North 8.1 mph - N/A   Scattered Clouds
1:35 PM 64.9 °F - 44.2 °F 47% 29.99 in 10.0 mi North 10.4 mph 16.1 mph N/A   Scattered Clouds
1:54 PM 66.4 °F - 45.0 °F 46% 29.99 in 10.0 mi North 8.1 mph - N/A   Scattered Clouds
2:15 PM 69.4 °F - 43.9 °F 40% 29.99 in 10.0 mi NNE 6.9 mph - N/A   Mostly Cloudy
2:35 PM 68.5 °F - 42.6 °F 39% 29.99 in 10.0 mi North 5.8 mph 9.2 mph N/A   Mostly Cloudy
2:54 PM 67.1 °F - 42.3 °F 40% 29.99 in 10.0 mi North 12.7 mph 17.3 mph N/A   Mostly Cloudy
3:15 PM 66.4 °F - 41.7 °F 41% 29.98 in 10.0 mi North 11.5 mph - N/A   Mostly Cloudy
3:35 PM 68.2 °F - 42.4 °F 39% 29.98 in 10.0 mi North 8.1 mph - N/A   Scattered Clouds
3:54 PM 69.4 °F - 41.9 °F 37% 29.97 in 10.0 mi North 9.2 mph - N/A   Clear
4:15 PM 67.6 °F - 41.5 °F 39% 29.97 in 10.0 mi North 11.5 mph 18.4 mph N/A   Clear
4:34 PM 68.9 °F - 42.4 °F 38% 29.97 in 10.0 mi North 10.4 mph - N/A   Clear
4:55 PM 68.5 °F - 41.4 °F 37% 29.96 in 10.0 mi North 10.4 mph 20.7 mph N/A   Clear
5:15 PM 67.1 °F - 41.0 °F 39% 29.97 in 10.0 mi North 13.8 mph 20.7 mph N/A   Clear
5:34 PM 64.2 °F - 39.4 °F 40% 29.97 in 10.0 mi North 15.0 mph 25.3 mph N/A   Clear
5:55 PM 62.2 °F - 38.8 °F 42% 29.98 in 10.0 mi North 17.3 mph 20.7 mph N/A   Clear
6:15 PM 60.8 °F - 38.7 °F 44% 29.98 in 10.0 mi North 12.7 mph 20.7 mph N/A   Clear
6:34 PM 59.9 °F - 38.1 °F 44% 29.98 in 10.0 mi North 11.5 mph 19.6 mph N/A   Clear
6:55 PM 57.2 °F - 37.8 °F 48% 29.99 in 10.0 mi North 13.8 mph 20.7 mph N/A   Clear
7:15 PM 55.6 °F - 37.8 °F 51% 29.99 in 10.0 mi North 15.0 mph 21.9 mph N/A   Scattered Clouds
7:34 PM 55.4 °F - 37.9 °F 52% 29.99 in 10.0 mi North 10.4 mph 18.4 mph N/A   Scattered Clouds
7:55 PM 54.5 °F - 38.5 °F 55% 30.00 in 10.0 mi North 10.4 mph 16.1 mph N/A   Scattered Clouds
8:15 PM 53.2 °F - 39.6 °F 60% 30.00 in 10.0 mi North 10.4 mph - N/A   Scattered Clouds
8:34 PM 52.2 °F - 39.2 °F 61% 30.01 in 10.0 mi North 10.4 mph 16.1 mph N/A   Mostly Cloudy
8:55 PM 51.3 °F - 39.7 °F 65% 30.02 in 10.0 mi North 11.5 mph 17.3 mph N/A   Overcast
9:15 PM 50.2 °F - 39.4 °F 66% 30.02 in 10.0 mi North 12.7 mph 19.6 mph N/A   Mostly Cloudy
9:55 PM 49.1 °F - 38.7 °F 67% 30.04 in 10.0 mi North 9.2 mph - N/A   Overcast
10:15 PM 48.9 °F - 38.8 °F 68% 30.04 in 10.0 mi North 8.1 mph - N/A   Overcast
10:34 PM 49.3 °F - 39.2 °F 68% 30.05 in 10.0 mi NNE 11.5 mph - N/A   Overcast
10:55 PM 48.7 °F - 37.6 °F 65% 30.05 in 10.0 mi NNE 13.8 mph - N/A   Overcast
11:15 PM 48.0 °F - 37.4 °F 67% 30.05 in 10.0 mi NE 15.0 mph - N/A   Overcast
11:55 PM 45.5 °F 38.1 °F 38.5 °F 76% 30.05 in 10.0 mi NE 18.4 mph - N/A Rain Light Rain